[[{"header":{"parameterUnit":"m.s-1","parameterCategory":1,"la1":30.2991,"la2":30.254,"lo1":-89.0895,"lo2":-89.0444,"dy":0.0017,"dx":0.0017,"nx":28,"ny":28,"refTime":"2025-11-16T09:00:00:Z","depth":0,"parameterNumber":2,"parameterNumberName":"U-component_of_WINDS"},"data":[0,0,0,0,0,0,0,0,0,0,0,0,0,0,0,0,0,0,0,0,0,0,0,0,0,0,0,0,0,0,0,0,0,0,0,0,0,0,0,0,0,0,0,0,0,0,0,0,0,0,0,0,0,0,0,0,0,0,1.6032,1.6034,0,1.6147,1.6149,1.615,1.6133,1.6131,1.6129,1.6127,1.6249,1.6254,1.6259,0,0,0,0,0,0,0,0,0,0,0,0,0,1.5801,1.5805,1.6032,1.6034,1.6035,1.6147,1.6149,1.615,1.6133,1.6131,1.6128,1.6126,1.6247,1.6253,1.6259,0,0,0,0,0,0,0,0,0,0,0,0,0,1.5907,1.5806,1.6032,1.604,1.6042,1.6147,1.6149,1.6151,1.6134,1.6131,1.6128,1.6125,1.6245,1.6253,1.626,1.6366,0,0,1.6283,1.6287,0,0,0,0,0,0,0,0,1.5901,1.5916,1.6037,1.604,1.6042,1.6123,1.6112,1.6223,1.6134,1.6099,1.6127,1.6124,1.621,1.622,1.6248,1.6371,1.6377,1.6284,1.6289,1.6292,1.6294,0,0,0,0,0,0,0,1.5894,1.5911,1.6078,1.6039,1.6042,1.6039,1.6051,1.6133,1.6169,1.6102,1.6101,1.6114,1.621,1.6241,1.6251,1.6378,1.6284,1.6291,1.6295,1.6298,1.6593,1.6596,0,0,0,0,0,0,1.5884,1.5905,1.6074,1.6081,1.5963,1.6045,1.6059,1.61,1.6168,1.6176,1.6117,1.6113,1.6229,1.6242,1.6255,1.6382,1.6292,1.6299,1.6303,1.659,1.6594,1.6598,0,0,0,0,0,0,1.5879,1.5899,1.607,1.5993,1.6014,1.6052,1.6099,1.6104,1.6134,1.618,1.6187,1.6141,1.6227,1.6244,1.6338,1.6386,1.6302,1.6309,1.6586,1.6591,1.6596,1.6638,0,0,0,0,0,0,1.5872,1.5897,1.5937,1.5994,1.6018,1.615,1.6102,1.6108,1.6147,1.6143,1.6204,1.6212,1.6226,1.6327,1.6345,1.6395,1.6315,1.6582,1.6588,1.6594,1.6633,1.6644,1.6654,0,0,0,0,0,1.5864,1.5945,1.5939,1.596,1.6069,1.6152,1.6167,1.6181,1.6151,1.6191,1.6221,1.621,1.6378,1.6336,1.6357,1.641,1.6579,1.6587,1.6594,1.6628,1.6642,1.6653,0,0,0,0,0,0,1.5895,1.5953,1.5947,1.6049,1.6096,1.6149,1.6201,1.6195,1.6253,1.6247,1.6263,1.6277,1.6372,1.6401,1.6353,1.6516,1.6474,1.6486,1.6493,1.6507,1.6517,1.6508,1.6322,0,0,0,0,0,1.5914,1.5976,1.6023,1.6109,1.6133,1.6163,1.62,1.6207,1.6256,1.6276,1.6313,1.6362,1.6426,1.6468,1.653,1.6637,1.665,1.6684,1.6694,1.6702,1.6712,1.677,1.6786,1.6622,1.6622,1.6622,0,0,1.5953,1.5992,1.6031,1.6116,1.6153,1.6218,1.618,1.625,1.6298,1.6288,1.6377,1.6406,1.6462,1.6563,1.6609,1.659,1.676,1.6712,1.6718,1.6724,1.678,1.6795,1.6809,1.6627,1.6626,1.6625,0,0,1.6057,1.6093,1.6168,1.6206,1.6262,1.6281,1.6299,1.6354,1.6372,1.6462,1.6455,1.6513,1.6623,1.6663,1.6698,1.6817,1.6809,1.6837,1.6892,1.6948,1.6961,1.6972,1.7014,1.7029,1.6847,1.6847,1.6847,0,1.6099,1.6195,1.6208,1.6278,1.6316,1.6308,1.6384,1.642,1.6494,1.6521,1.6498,1.6635,1.6672,1.6782,1.681,1.6839,1.686,1.683,1.6958,1.6969,1.698,1.702,1.7036,1.685,1.6849,1.6849,1.6849,0,1.6244,1.6311,1.6365,1.6434,1.6478,1.6551,1.6575,1.6618,1.6621,1.6643,1.6735,1.678,1.685,1.6876,1.6881,1.6986,1.6972,1.6954,1.6913,1.6999,1.7036,1.7052,1.6854,1.6853,1.6852,1.6851,0,0,1.6372,1.6446,1.6466,1.6497,1.6558,1.661,1.6683,1.675,1.6786,1.6838,1.6899,1.6992,1.6974,1.7014,1.7023,1.7072,1.7162,1.7047,1.7049,1.7066,1.7281,1.7294,1.7312,1.7158,1.7161,1.7163,1.7276,0,1.6481,1.6608,1.6621,1.6735,1.6797,1.679,1.6853,1.6898,1.692,1.6977,1.7002,1.7067,1.704,1.7063,1.7112,1.7141,1.7206,1.7133,1.7215,1.7218,1.72,1.7331,1.7346,1.745,1.7291,1.7293,1.7295,0,1.6626,1.6679,1.6799,1.6851,1.6877,1.6934,1.6995,1.7049,1.71,1.7113,1.7157,1.7159,1.7234,1.719,1.7295,1.7245,1.728,1.7299,1.7304,1.7311,1.7261,1.7342,1.7484,1.7499,1.7319,1.7317,1.7315,0,1.6706,1.6808,1.6893,1.692,1.6982,1.7022,1.705,1.7098,1.7137,1.7191,1.7217,1.728,1.7315,1.7364,1.7383,1.735,1.7487,1.7445,1.75,1.7499,1.7529,1.7526,1.7677,1.7552,1.7552,1.7551,1.7551,0,1.6826,1.69,1.6929,1.6981,1.7063,1.7078,1.7159,1.7185,1.7227,1.7285,1.7284,1.7338,1.736,1.7418,1.7434,1.7517,1.7533,1.7546,1.7549,1.7546,1.7544,1.7568,1.7561,1.7556,1.7555,1.7554,1.7553,0,1.6929,1.6952,1.7043,1.7094,1.7109,1.7167,1.7211,1.7262,1.7283,1.7356,1.7374,1.7408,1.7476,1.75,1.7584,1.7594,1.7691,1.7689,1.7673,1.7674,1.7727,1.7721,1.7898,1.7922,1.7782,1.7783,1.7784,0,1.7004,1.706,1.7117,1.7154,1.7183,1.7244,1.7284,1.7301,1.7342,1.7403,1.7446,1.7514,1.7568,1.7677,1.771,1.7774,1.7772,1.783,1.7782,1.7776,1.7772,1.7768,1.7773,1.7839,1.784,1.7841,1.7842,0,1.7134,1.7143,1.7199,1.7259,1.7306,1.7354,1.7401,1.7433,1.7456,1.7503,1.7572,1.7614,1.7698,1.7765,1.7829,1.7859,1.7855,1.7857,1.7873,1.787,1.7858,1.7864,1.7697,1.7853,1.7852,1.7851,1.785,1.785,1.7225,1.7274,1.7321,1.7384,1.7421,1.7465,1.7514,1.7541,1.7598,1.7667,1.7674,1.7748,1.7797,1.7883,1.7916,1.7974,1.7958,1.7982,1.7987,1.7993,1.7996,1.7849,1.7986,1.7986,1.7986,1.7986,1.7985,0,1.7355,1.7384,1.7442,1.7507,1.7556,1.7546,1.7598,1.764,1.7704,1.775,1.7803,1.7882,1.7947,1.7984,1.8049,1.8088,1.8088,1.8105,1.8102,1.8109,1.8007,1.7986,1.8104,1.8104,1.8104,1.8104,1.8104,1.8104,1.7428,1.751,1.7523,1.7624,1.7653,1.7725,1.7755,1.7795,1.7831,1.7919,1.7972,1.7995,1.8038,1.8106,1.8164,1.8174,1.8198,1.8216,1.8224,1.8128,1.8116,1.8104,1.8085,1.8221,1.8221,1.832,1.8321,1.8322]},{"header":{"parameterUnit":"m.s-1","parameterCategory":1,"la1":30.2991,"la2":30.254,"lo1":-89.0895,"lo2":-89.0444,"dy":0.0017,"dx":0.0017,"nx":28,"ny":28,"refTime":"2025-11-16T09:00:00:Z","depth":0,"parameterNumber":3,"parameterNumberName":"V-component_of_WINDS"},"data":[0,0,0,0,0,0,0,0,0,0,0,0,0,0,0,0,0,0,0,0,0,0,0,0,0,0,0,0,0,0,0,0,0,0,0,0,0,0,0,0,0,0,0,0,0,0,0,0,0,0,0,0,0,0,0,0,0,0,0.7856,0.7855,0,0.7785,0.7784,0.7783,0.7728,0.7728,0.7727,0.7727,0.7651,0.7649,0.7648,0,0,0,0,0,0,0,0,0,0,0,0,0,0.7942,0.794,0.7856,0.7855,0.7854,0.7785,0.7784,0.7783,0.7728,0.7728,0.7727,0.7727,0.7651,0.7649,0.7647,0,0,0,0,0,0,0,0,0,0,0,0,0,0.7891,0.794,0.7856,0.7819,0.7815,0.7785,0.7784,0.7782,0.7728,0.7728,0.7727,0.7726,0.7652,0.765,0.7647,0.7648,0,0,0.764,0.7639,0,0,0,0,0,0,0,0,0.7894,0.7888,0.7825,0.7821,0.7817,0.7765,0.7786,0.7737,0.7729,0.7761,0.7727,0.7726,0.7689,0.7684,0.7672,0.7644,0.7641,0.764,0.7638,0.7637,0.7637,0,0,0,0,0,0,0,0.7897,0.789,0.7828,0.7824,0.7819,0.7804,0.7796,0.7776,0.773,0.7758,0.7754,0.7747,0.7686,0.7674,0.767,0.764,0.764,0.7638,0.7636,0.7636,0.7607,0.7607,0,0,0,0,0,0,0.7907,0.7894,0.783,0.7826,0.7854,0.7803,0.7794,0.7782,0.773,0.7722,0.7747,0.7744,0.7678,0.7672,0.7667,0.7662,0.7637,0.7635,0.7634,0.7606,0.7607,0.7608,0,0,0,0,0,0,0.7909,0.7902,0.7833,0.7858,0.7849,0.7803,0.7789,0.7781,0.7769,0.7722,0.7713,0.7743,0.7678,0.767,0.7653,0.7659,0.7634,0.7632,0.7605,0.7606,0.7607,0.7655,0,0,0,0,0,0,0.7912,0.7903,0.7904,0.7859,0.7847,0.7821,0.779,0.778,0.7765,0.776,0.7716,0.7708,0.7676,0.7656,0.765,0.7655,0.763,0.7605,0.7606,0.7607,0.7653,0.7658,0.7662,0,0,0,0,0,0.7915,0.792,0.7904,0.7897,0.7848,0.7822,0.7815,0.778,0.7766,0.7765,0.7735,0.7709,0.7659,0.7655,0.7648,0.7652,0.7604,0.7605,0.7607,0.7651,0.7657,0.7662,0,0,0,0,0,0,0.7967,0.7914,0.7895,0.7886,0.7859,0.7813,0.7812,0.7788,0.7763,0.776,0.7716,0.7706,0.7693,0.7671,0.7667,0.7649,0.7628,0.7628,0.7664,0.7669,0.7674,0.7679,0.7628,0,0,0,0,0,0.7977,0.7962,0.7916,0.7912,0.7899,0.7858,0.7845,0.782,0.779,0.7778,0.7747,0.7717,0.7694,0.7681,0.7658,0.7649,0.7638,0.7648,0.7653,0.7657,0.7657,0.7649,0.7653,0.7612,0.7612,0.7612,0,0,0.7998,0.7967,0.796,0.7921,0.7897,0.7881,0.7849,0.7833,0.782,0.7775,0.7757,0.7733,0.7697,0.7684,0.7676,0.7664,0.7666,0.7659,0.7662,0.766,0.7651,0.7655,0.7658,0.7613,0.7613,0.7613,0,0,0.8028,0.8004,0.7997,0.7974,0.7938,0.791,0.7909,0.7865,0.7848,0.7829,0.7794,0.7777,0.774,0.7716,0.7698,0.7717,0.7691,0.771,0.7734,0.7726,0.773,0.7732,0.7737,0.774,0.7711,0.7711,0.7711,0,0.8058,0.8034,0.7997,0.7983,0.7966,0.7925,0.7917,0.7896,0.7854,0.7843,0.783,0.7782,0.7755,0.7734,0.7739,0.7726,0.7722,0.7715,0.7732,0.7735,0.7736,0.7741,0.7743,0.7714,0.7713,0.7713,0.7713,0,0.8072,0.8055,0.8054,0.8015,0.7998,0.7987,0.7947,0.7934,0.791,0.7883,0.7863,0.7829,0.7798,0.7791,0.7768,0.7766,0.776,0.7741,0.7719,0.7743,0.7747,0.7748,0.7717,0.7716,0.7716,0.7715,0,0,0.8133,0.8073,0.8073,0.8054,0.8011,0.7996,0.7983,0.7953,0.7941,0.7914,0.79,0.7869,0.785,0.783,0.7803,0.7797,0.7812,0.7778,0.7776,0.7784,0.7806,0.7821,0.7823,0.7795,0.7795,0.7795,0.7809,0,0.8155,0.813,0.8096,0.8081,0.8064,0.8024,0.8012,0.7983,0.7957,0.7938,0.7908,0.7886,0.7864,0.7852,0.7844,0.7812,0.7815,0.781,0.778,0.7779,0.779,0.7825,0.7841,0.7856,0.781,0.781,0.781,0,0.8178,0.8153,0.8137,0.8093,0.8085,0.8075,0.8043,0.8026,0.7992,0.7973,0.795,0.7921,0.7903,0.7884,0.7857,0.7854,0.7839,0.7821,0.7821,0.7816,0.7796,0.782,0.786,0.7862,0.7812,0.7812,0.7812,0,0.8223,0.8184,0.8169,0.8155,0.8104,0.8097,0.8076,0.8041,0.8024,0.7996,0.7985,0.7955,0.7938,0.7915,0.7878,0.7867,0.7854,0.7832,0.7836,0.7837,0.7835,0.7836,0.7872,0.7827,0.7827,0.7827,0.7827,0,0.8251,0.8242,0.8188,0.8179,0.8168,0.8127,0.8117,0.8091,0.806,0.8044,0.8008,0.7993,0.7945,0.7924,0.7895,0.7876,0.7869,0.7852,0.7844,0.7855,0.7857,0.7844,0.7841,0.7828,0.7828,0.7828,0.7827,0,0.8299,0.8263,0.8243,0.8197,0.8185,0.8178,0.8138,0.8126,0.8098,0.8077,0.807,0.8025,0.7998,0.7959,0.792,0.79,0.7885,0.7873,0.7897,0.7892,0.7898,0.7898,0.7927,0.7928,0.7884,0.7885,0.7885,0,0.8319,0.8311,0.8264,0.8251,0.823,0.821,0.8193,0.8152,0.8135,0.8095,0.8088,0.8058,0.8033,0.7991,0.7954,0.7924,0.791,0.7922,0.7905,0.7915,0.7908,0.7909,0.7907,0.7926,0.7927,0.7927,0.7928,0,0.8357,0.834,0.8317,0.8288,0.8268,0.8243,0.8216,0.8207,0.816,0.8142,0.8115,0.8095,0.8055,0.8026,0.799,0.7966,0.7938,0.7933,0.7932,0.7943,0.7957,0.7948,0.7907,0.7933,0.7932,0.7932,0.7931,0.7931,0.8391,0.8382,0.8347,0.8322,0.8297,0.8272,0.8259,0.8229,0.8206,0.8171,0.8147,0.8121,0.8084,0.8034,0.8011,0.7988,0.7977,0.7976,0.7975,0.7975,0.7979,0.7961,0.7981,0.7981,0.7981,0.7981,0.7981,0,0.8427,0.8402,0.838,0.8343,0.8323,0.83,0.8268,0.8253,0.823,0.8199,0.8174,0.8142,0.8113,0.8073,0.804,0.8029,0.8016,0.8022,0.8022,0.8016,0.7991,0.7995,0.8034,0.8034,0.8034,0.8034,0.8034,0.8034,0.8443,0.8426,0.8404,0.8373,0.8348,0.8322,0.8306,0.8282,0.8257,0.8222,0.8198,0.8173,0.8137,0.8102,0.8073,0.8062,0.8051,0.8061,0.8046,0.8023,0.8018,0.8014,0.8017,0.8059,0.8059,0.8072,0.8073,0.8073]}]]